Location: Ferchesar
(52.6477°N, 12.4298°E)
Time: 00:43:13
(UTC+01:00)

Transit 4A - Pass Details

Date: 15 December 2021
Orbit: 864 x 981 km, 66.8° (Epoch: 19 January)

Event Time Altitude Azimuth Distance (km) Brightness Sun altitude
Rises 21:06:59 0° 294° (WNW) 3,550 11.7 -45.3°
Reaches altitude 10° 21:10:07 10° 309° (NW) 2,630 10.8 -45.7°
Enters shadow 21:11:19 14° 319° (NW) 2,344 10.4 -45.9°
